Time,TemperatureF,DewpointF,PressureIn,WindDirection,WindDirectionDegrees,WindSpeedMPH,WindSpeedGustMPH,Humidity,HourlyPrecipIn,Conditions,Clouds,dailyrainin,SoftwareType,DateUTC
2013-07-04 00:34:00,72.0,32.0,29.71,West,270,2.0,10.0,23,0.00,,,-99.99,,2013-07-04 07:34:00,
2013-07-04 00:43:00,72.0,32.0,29.71,West,270,2.0,10.0,23,0.00,,,-99.99,,2013-07-04 07:43:00,
2013-07-04 00:52:00,72.0,32.0,29.71,West,270,2.0,10.0,23,0.00,,,-99.99,,2013-07-04 07:52:00,
2013-07-04 01:33:00,72.0,31.0,29.70,West,280,5.0,15.0,22,0.00,,,-99.99,,2013-07-04 08:33:00,
2013-07-04 01:42:00,72.0,31.0,29.70,West,280,5.0,15.0,22,0.00,,,-99.99,,2013-07-04 08:42:00,
2013-07-04 01:52:00,72.0,31.0,29.70,West,280,5.0,15.0,22,0.00,,,-99.99,,2013-07-04 08:52:00,
2013-07-04 02:32:00,72.0,30.0,29.70,West,280,4.0,10.0,21,0.00,,,-99.99,,2013-07-04 09:32:00,
2013-07-04 02:42:00,72.0,30.0,29.70,West,280,4.0,10.0,21,0.00,,,-99.99,,2013-07-04 09:42:00,
2013-07-04 02:52:00,72.0,30.0,29.70,West,280,4.0,10.0,21,0.00,,,-99.99,,2013-07-04 09:52:00,
2013-07-04 03:33:00,72.0,30.0,29.68,West,280,4.0,9.0,21,0.00,,,-99.99,,2013-07-04 10:33:00,
2013-07-04 03:42:00,72.0,30.0,29.68,West,280,4.0,9.0,21,0.00,,,-99.99,,2013-07-04 10:42:00,
2013-07-04 03:53:00,72.0,30.0,29.68,West,280,4.0,9.0,21,0.00,,,-99.99,,2013-07-04 10:53:00,
2013-07-04 04:33:00,72.0,29.0,29.67,West,270,2.0,11.0,20,0.00,,,-99.99,,2013-07-04 11:33:00,
2013-07-04 04:43:00,72.0,29.0,29.67,West,270,2.0,11.0,20,0.00,,,-99.99,,2013-07-04 11:43:00,
2013-07-04 04:53:00,72.0,29.0,29.67,West,270,2.0,11.0,20,0.00,,,-99.99,,2013-07-04 11:53:00,
2013-07-04 05:43:00,72.0,29.0,29.67,West,280,6.0,9.0,20,0.00,,,-99.99,,2013-07-04 12:43:00,
2013-07-04 05:52:00,72.0,29.0,29.67,West,280,6.0,9.0,20,0.00,,,-99.99,,2013-07-04 12:52:00,
2013-07-04 06:33:00,72.0,34.0,29.68,WNW,290,6.0,9.0,25,0.00,,,-99.99,,2013-07-04 13:33:00,
2013-07-04 08:33:00,77.0,41.0,29.70,North,0,0.0,6.0,28,0.00,,,-99.99,,2013-07-04 15:33:00,
2013-07-04 08:43:00,77.0,41.0,29.70,North,0,0.0,6.0,28,0.00,,,-99.99,,2013-07-04 15:43:00,
2013-07-04 08:52:00,77.0,41.0,29.70,North,0,0.0,6.0,28,0.00,,,-99.99,,2013-07-04 15:52:00,
2013-07-04 09:33:00,81.0,42.0,29.70,WNW,300,1.0,9.0,25,0.00,,,-99.99,,2013-07-04 16:33:00,
2013-07-04 09:42:00,81.0,42.0,29.70,WNW,300,1.0,9.0,25,0.00,,,-99.99,,2013-07-04 16:42:00,
2013-07-04 09:51:00,84.0,42.0,29.70,North,0,0.0,9.0,23,0.00,,,-99.99,,2013-07-04 16:51:00,
2013-07-04 09:52:00,81.0,42.0,29.70,WNW,300,1.0,9.0,25,0.00,,,-99.99,,2013-07-04 16:52:00,
2013-07-04 10:33:00,84.0,42.0,29.70,North,0,0.0,9.0,23,0.00,,,-99.99,,2013-07-04 17:33:00,
2013-07-04 10:43:00,84.0,42.0,29.70,North,0,0.0,9.0,23,0.00,,,-99.99,,2013-07-04 17:43:00,
2013-07-04 11:33:00,83.0,41.0,29.70,North,0,0.0,10.0,23,0.00,,,-99.99,,2013-07-04 18:33:00,
2013-07-04 11:43:00,83.0,41.0,29.70,North,0,0.0,10.0,23,0.00,,,-99.99,,2013-07-04 18:43:00,
2013-07-04 11:52:00,83.0,41.0,29.70,North,0,0.0,10.0,23,0.00,,,-99.99,,2013-07-04 18:52:00,
2013-07-04 12:33:00,84.0,42.0,29.71,West,260,13.0,14.0,23,0.00,,,-99.99,,2013-07-04 19:33:00,
2013-07-04 12:43:00,84.0,42.0,29.71,West,260,13.0,14.0,23,0.00,,,-99.99,,2013-07-04 19:43:00,
2013-07-04 12:53:00,84.0,42.0,29.71,West,260,13.0,14.0,23,0.00,,,-99.99,,2013-07-04 19:53:00,
2013-07-04 13:33:00,85.0,42.0,29.70,West,260,3.0,9.0,22,0.00,,,-99.99,,2013-07-04 20:33:00,
2013-07-04 13:42:00,85.0,42.0,29.70,West,260,3.0,9.0,22,0.00,,,-99.99,,2013-07-04 20:42:00,
2013-07-04 13:53:00,85.0,42.0,29.70,West,260,3.0,9.0,22,0.00,,,-99.99,,2013-07-04 20:53:00,
2013-07-04 14:32:00,84.0,41.0,29.70,West,260,1.0,15.0,22,0.00,,,-99.99,,2013-07-04 21:32:00,
2013-07-04 14:42:00,84.0,41.0,29.70,West,260,1.0,15.0,22,0.00,,,-99.99,,2013-07-04 21:42:00,
2013-07-04 14:52:00,84.0,41.0,29.70,West,260,1.0,15.0,22,0.00,,,-99.99,,2013-07-04 21:52:00,
2013-07-04 15:33:00,84.0,37.0,29.68,West,260,13.0,17.0,19,0.00,,,-99.99,,2013-07-04 22:33:00,
2013-07-04 15:43:00,84.0,37.0,29.68,West,260,13.0,17.0,19,0.00,,,-99.99,,2013-07-04 22:43:00,
2013-07-04 15:52:00,84.0,37.0,29.68,West,260,13.0,17.0,19,0.00,,,-99.99,,2013-07-04 22:52:00,
2013-07-04 16:33:00,83.0,41.0,29.68,West,260,1.0,12.0,23,0.00,,,-99.99,,2013-07-04 23:33:00,
2013-07-04 16:42:00,83.0,41.0,29.68,West,260,1.0,12.0,23,0.00,,,-99.99,,2013-07-04 23:42:00,
2013-07-04 16:52:00,83.0,41.0,29.68,West,260,1.0,12.0,23,0.00,,,-99.99,,2013-07-04 23:52:00,
2013-07-04 17:32:00,80.0,40.0,29.67,West,260,8.0,16.0,24,0.00,,,-99.99,,2013-07-05 00:32:00,
2013-07-04 17:43:00,80.0,40.0,29.67,West,260,8.0,16.0,24,0.00,,,-99.99,,2013-07-05 00:43:00,
2013-07-04 17:52:00,80.0,40.0,29.67,West,260,8.0,16.0,24,0.00,,,-99.99,,2013-07-05 00:52:00,
2013-07-04 18:32:00,78.0,39.0,29.66,West,260,7.0,15.0,25,0.00,,,-99.99,,2013-07-05 01:32:00,
2013-07-04 18:42:00,78.0,39.0,29.66,West,260,7.0,15.0,25,0.00,,,-99.99,,2013-07-05 01:42:00,
2013-07-04 18:52:00,78.0,39.0,29.66,West,260,7.0,15.0,25,0.00,,,-99.99,,2013-07-05 01:52:00,
2013-07-04 19:32:00,76.0,37.0,29.66,West,260,9.0,11.0,24,0.00,,,-99.99,,2013-07-05 02:32:00,
2013-07-04 19:42:00,76.0,37.0,29.66,West,260,9.0,11.0,24,0.00,,,-99.99,,2013-07-05 02:42:00,
2013-07-04 19:52:00,76.0,37.0,29.66,West,260,9.0,11.0,24,0.00,,,-99.99,,2013-07-05 02:52:00,
2013-07-04 20:32:00,73.0,34.0,29.67,West,270,9.0,16.0,24,0.00,,,-99.99,,2013-07-05 03:32:00,
2013-07-04 20:42:00,73.0,34.0,29.67,West,270,9.0,16.0,24,0.00,,,-99.99,,2013-07-05 03:42:00,
2013-07-04 20:51:00,73.0,34.0,29.67,West,270,9.0,16.0,24,0.00,,,-99.99,,2013-07-05 03:51:00,
2013-07-04 21:33:00,72.0,32.0,29.67,West,270,10.0,14.0,23,0.00,,,-99.99,,2013-07-05 04:33:00,
2013-07-04 21:43:00,72.0,32.0,29.67,West,270,10.0,14.0,23,0.00,,,-99.99,,2013-07-05 04:43:00,
2013-07-04 21:53:00,72.0,32.0,29.67,West,270,10.0,14.0,23,0.00,,,-99.99,,2013-07-05 04:53:00,
2013-07-04 22:33:00,71.0,35.0,29.68,West,270,3.0,14.0,27,0.00,,,-99.99,,2013-07-05 05:33:00,
2013-07-04 22:43:00,71.0,35.0,29.68,West,270,3.0,14.0,27,0.00,,,-99.99,,2013-07-05 05:43:00,
2013-07-04 22:52:00,71.0,35.0,29.68,West,270,3.0,14.0,27,0.00,,,-99.99,,2013-07-05 05:52:00,
2013-07-04 23:34:00,72.0,31.0,29.69,West,270,7.0,13.0,22,0.00,,,-99.99,,2013-07-05 06:34:00,
2013-07-04 23:43:00,72.0,31.0,29.69,West,270,7.0,13.0,22,0.00,,,-99.99,,2013-07-05 06:43:00,
2013-07-04 23:52:00,72.0,31.0,29.69,West,270,7.0,13.0,22,0.00,,,-99.99,,2013-07-05 06:52:00,